{"data":{"norad_id":62918,"intl_designator":"2025-027M","name":"STARLINK-11562 [DTC]","alt_names":[],"object_type":"PAYLOAD","status":"ACTIVE","operator":null,"country":"US","launch_date":"2025-02-08","launch_site_code":"AFETR","launch_vehicle":null,"mission":null,"orbit_class":"UNKNOWN","rcs_meters":null,"size_class":null,"mass_kg":null,"dimensions":null,"purposes":["comms"],"wikipedia_slug":null,"has_3d_model":false,"image_url":null,"decayed_at":null,"tle_current":{"epoch":"2026-09-21T09:28:50.491776Z","epoch_age_seconds":90940,"freshness":"FRESH","line1":"1 62918U 25027M   26264.39502884  .00108275  00000+0  83573-3 0  9992","line2":"2 62918  42.9990 247.8219 0000543 317.2252  42.8573 15.70858060 93975","mean_motion":15.7085806,"eccentricity":5.43e-5,"inclination_deg":42.999,"raan_deg":247.8219,"arg_perigee_deg":317.2252,"mean_anomaly_deg":42.8573,"bstar":0.00083573,"rev_number":9397,"period_min":91.669644550826,"perigee_km":356.07775548506,"apogee_km":356.80913092119,"semimajor_km":6734.5804432031,"source":"CELESTRAK","updated_at":"2026-09-22T09:00:49.708715Z"}}}